Location: Monteux
(44.0348°N, 4.9972°E)
Time: 05:27:24
(UTC+00:00)

Cosmos 2341 Rocket - Pass Details

Date: 22 April 2021
Orbit: 969 x 1003 km, 82.9° (Epoch: 11 May)

Event Time Altitude Azimuth Distance (km) Brightness Sun altitude
Rises 00:39:18 0° 350° (N) 3,718 7.9 -32.1°
Reaches altitude 10° 00:41:49 10° 350° (N) 2,769 7.0 -31.9°
Enters shadow 00:47:28 70° 325° (NW) 1,061 4.1 -31.6°
